CST,Max TemperatureF,Mean TemperatureF,Min TemperatureF,Max Dew PointF,MeanDew PointF,Min DewpointF,Max Humidity, Mean Humidity, Min Humidity, Max Sea Level PressureIn, Mean Sea Level PressureIn, Min Sea Level PressureIn, Max VisibilityMiles, Mean VisibilityMiles, Min VisibilityMiles, Max Wind SpeedMPH, Mean Wind SpeedMPH, Max Gust SpeedMPH,PrecipitationIn, CloudCover, Events, WindDirDegrees
2013-12-1,43,32,21,25,22,18,89,70,49,30.20,30.08,29.88,10,9,7,8,4,,0.00,2,,35
2013-12-2,57,41,25,33,27,21,85,67,37,29.85,29.62,29.52,10,9,5,12,6,,0.00,0,,173
2013-12-3,46,37,28,33,30,20,82,74,60,29.71,29.61,29.52,10,8,4,23,11,26,0.00,4,,356
2013-12-4,34,25,16,30,16,6,92,77,65,30.09,29.80,29.66,10,8,2,25,17,33,0.00,8,Rain-Snow,318
2013-12-5,17,12,6,6,-1,-6,70,59,43,30.51,30.33,30.06,10,10,10,26,18,34,0.00,1,,315
2013-12-6,12,5,-2,-6,-8,-10,72,62,42,30.79,30.65,30.51,10,10,10,16,10,23,0.00,0,,329
2013-12-7,12,3,-6,5,-5,-13,77,64,46,30.84,30.68,30.43,10,8,2,10,6,,0.00,3,Snow,28
2013-12-8,17,12,3,11,8,-1,84,78,71,30.44,30.21,30.03,10,4,1,13,9,,0.01,7,Snow,110
2013-12-9,12,2,-7,2,-5,-13,77,67,58,30.40,30.27,30.10,10,10,10,17,11,,0.00,1,,243
2013-12-10,28,16,5,23,13,-1,78,69,53,30.30,30.18,30.05,10,10,2,24,12,36,0.00,4,Snow,245
2013-12-11,21,10,-2,15,-1,-10,75,65,54,30.72,30.58,30.35,10,10,10,26,16,33,0.00,1,,291
2013-12-12,32,18,5,21,10,-1,84,74,64,30.47,30.31,30.11,10,10,10,14,10,,0.00,0,,165
2013-12-13,36,24,12,24,16,10,88,76,59,30.17,30.04,29.94,10,9,7,18,8,,0.00,2,,23
2013-12-14,21,16,10,14,10,5,81,75,65,30.27,30.23,30.16,10,10,8,20,13,,0.00,6,,335
2013-12-15,27,21,12,16,12,9,88,72,60,30.19,30.09,30.02,10,10,7,9,6,,0.00,7,,94
2013-12-16,46,27,8,30,19,4,84,73,52,30.16,30.08,30.02,10,9,6,22,6,29,0.00,3,,260
2013-12-17,42,30,17,26,18,10,78,62,32,30.30,30.21,30.11,10,10,10,24,10,30,0.00,0,,267
2013-12-18,53,35,17,28,22,11,81,63,38,30.06,29.82,29.71,10,10,10,17,9,,0.00,0,,179
2013-12-19,30,24,18,25,19,14,85,75,59,29.97,29.87,29.77,10,8,5,24,16,31,0.00,4,Rain,2
2013-12-20,19,15,12,13,10,9,84,78,74,30.04,29.98,29.90,10,6,2,22,14,28,0.00,8,Rain-Snow,336
2013-12-21,24,18,12,17,14,8,84,77,65,29.94,29.88,29.83,10,9,6,22,5,,0.00,4,,26
2013-12-22,21,14,3,14,6,-3,78,68,50,30.48,30.17,29.94,10,10,10,24,18,,0.00,3,,329
2013-12-23,10,1,-9,-4,-12,-18,70,54,32,30.68,30.61,30.48,10,10,10,16,12,,0.00,2,,322
2013-12-24,26,9,-8,19,6,-17,77,67,58,30.58,30.30,30.17,10,10,7,24,12,31,0.00,7,,175
2013-12-25,42,28,14,27,18,9,92,72,47,30.33,30.26,30.21,10,10,9,31,13,40,0.00,3,,249
2013-12-26,50,33,16,22,17,11,82,63,31,30.27,30.18,30.10,10,10,10,9,6,,0.00,0,,217
2013-12-27,63,38,12,27,17,8,84,54,20,30.27,30.15,30.05,10,10,10,22,9,29,0.00,0,,195
2013-12-28,63,40,12,28,20,2,77,55,19,30.21,29.92,29.72,10,10,10,38,14,47,0.00,2,,210
2013-12-29,14,6,-2,0,-12,-17,64,45,24,30.48,30.37,30.22,10,10,10,26,19,38,0.00,2,,338
2013-12-30,36,18,0,24,3,-11,84,55,37,30.33,30.19,30.04,10,9,2,25,13,41,0.00,6,Snow,201
2013-12-31,30,16,3,13,4,-1,80,68,49,30.32,30.23,30.10,10,10,10,21,8,24,0.00,2,,72